Overview Statistics Trail Chart Weather Telemetry Raw packets
 

This is the latest recevied weather packets stored in our database for station/object VA2RBQ-7. If no packets are shown the sender has not sent any weather packets the latest 10 day(s).

<< 12 13 14 15 16 17 18 >>
Time Temp. Humidity Pressure Rain* Wind** Luminosity Snow
1788470442 8.89° C 71% 1015.3 hPa 5.59 mm - - -
1788470138 8.89° C 71% 1015.2 hPa 5.59 mm - - -
1788469836 8.89° C 71% 1015.3 hPa 4.57 mm - - -
1788469533 8.89° C 71% 1015.2 hPa 4.32 mm - - -
1788469231 8.89° C 71% 1015.6 hPa 4.32 mm - - -
1788468929 8.89° C 71% 1015.5 hPa 4.06 mm - - -
1788468653 8.89° C 71% 1015.4 hPa 3.81 mm - - -
1788468323 8.89° C 71% 1015.5 hPa 3.56 mm - - -
1788468020 8.89° C 71% 1015.8 hPa 3.56 mm - - -
1788467718 8.89° C 71% 1015.8 hPa 3.56 mm - - -
1788467416 8.89° C 71% 1015.8 hPa 3.3 mm - - -
1788467113 8.89° C 71% 1015.9 hPa 3.3 mm - - -
1788466810 8.89° C 71% 1015.8 hPa 3.05 mm - - -
1788466508 8.89° C 71% 1016 hPa 3.05 mm - - -
1788466205 8.89° C 71% 1016.1 hPa 3.05 mm - - -
1788465903 8.89° C 71% 1016.1 hPa 2.79 mm - - -
1788465618 8.89° C 71% 1016.3 hPa 2.79 mm - - -
1788465297 8.89° C 70% 1016.4 hPa 2.29 mm - - -
1788464995 8.89° C 70% 1016.5 hPa 2.03 mm - - -
1788464692 8.89° C 70% 1016.7 hPa 1.78 mm - - -
1788464390 8.89° C 70% 1016.7 hPa 1.52 mm - - -
1788464087 8.89° C 70% 1016.8 hPa 1.27 mm - - -
1788463784 8.89° C 70% 1017 hPa 0.76 mm - - -
1788463179 8.89° C 71% 1017.1 hPa 0.51 mm - - -
1788462877 -17.78° C 71% 1017.1 hPa 0 mm - - -

* Rain since midnight (hover to see other rain measurements)
** Current wind speed in m/s (hover to see current wind gust speed)